Location: Bord�res
(43.2000°N, 0.2167°W)
Time: 15:11:23
(UTC+00:00)

CZ-4 R/B - Pass Details

Date: 03 March 2021
Orbit: 532 x 597 km, 97.7° (Epoch: 21 April)

Event Time Altitude Azimuth Distance (km) Brightness Sun altitude
Rises 19:37:13 0° 204° (SSW) 2,665 5.0 -19.8°
Reaches altitude 10° 19:39:53 10° 224° (SW) 1,784 4.3 -20.3°
Maximum altitude 19:42:29 17° 267° (W) 1,389 4.3 -20.7°
Drops below altitude 10° 19:45:08 10° 310° (NW) 1,809 4.8 -21.2°
Sets 19:47:52 0° 331° (NNW) 2,718 5.5 -21.7°
